Duluth Sky Harbor, MN

9:10 AM CDT on March 25, 2017 (GMT -0500)
Sky Harbor

Weather History for KDYT - November, 2011

Change the Weather History Date:

Saturday, November 26, 2011

  Actual Average Record
Temperature  
Mean Temperature 38 °F -  
Max Temperature 41 °F 34 °F 54 °F (1960)
Min Temperature 33 °F 19 °F -11 °F (1977)
Degree Days  
Heating Degree Days 27    
Moisture  
Dew Point 34 °F    
Average Humidity 90    
Maximum Humidity 100    
Minimum Humidity 75    
Precipitation  
Precipitation 0.00 in - - ()
Sea Level Pressure  
Sea Level Pressure 29.84 in    
Wind  
Wind Speed 18 mph (North)    
Max Wind Speed 30 mph    
Max Gust Speed 39 mph    
Visibility 9 miles    
Events Rain    
Averages and records for this station are not official NWS values.
T = Trace of Precipitation, MM = Missing Value Source: NWS Daily Summary

Daily Weather History Graph

Daily Weather History Graph

Search for Another Location

Airport or City:

Trip Planner

Search our weather history database for the weather conditions in past years. The results will help you decide how hot, cold, wet, or windy it might be!

Date:

Astronomy

Nov. 26, 2011 Rise Set
Actual Time 7:25 AM CST 4:24 PM CST
Civil Twilight 6:51 AM CST 4:58 PM CST
Nautical Twilight 6:14 AM CST 5:36 PM CST
Astronomical Twilight 5:37 AM CST 6:12 PM CST
Moon 9:00 AM CST (11/26) 5:52 PM CST (11/26)
Length of Visible Light 10h 07m
Length of Day
8h 59m
Waxing Crescent, 3% of the Moon is Illuminated
Nov 26
Waxing Crescent
Dec 2
First Quarter
Dec 10
Full
Dec 17
Last Quarter
Dec 24
New

Hourly Weather History & Observations

Time (CST) Temp. Windchill Dew Point Humidity Pressure Visibility Wind Dir Wind Speed Gust Speed Precip Events Conditions
12:34 AM 39.2 °F 30.5 °F 39.2 °F 100% 29.77 in 10.0 mi NE 16.1 mph - N/A   Overcast
12:53 AM 41.0 °F 32.8 °F 39.2 °F 93% 29.77 in 10.0 mi NE 16.1 mph - N/A   Overcast
1:13 AM 41.0 °F 31.9 °F 39.2 °F 93% 29.76 in 7.0 mi NE 19.6 mph - N/A   Overcast
1:34 AM 41.0 °F 32.2 °F 39.2 °F 93% 29.76 in 5.0 mi NE 18.4 mph - N/A   Overcast
1:53 AM 39.2 °F 29.8 °F 39.2 °F 100% 29.75 in 4.0 mi NE 18.4 mph - N/A   Overcast
2:13 AM 39.2 °F 29.6 °F 37.4 °F 93% 29.75 in 5.0 mi NE 19.6 mph - N/A   Overcast
2:34 AM 39.2 °F 28.7 °F 37.4 °F 93% 29.75 in 7.0 mi NE 23.0 mph 31.1 mph N/A   Overcast
2:53 AM 39.2 °F 28.5 °F 37.4 °F 93% 29.76 in 7.0 mi NE 24.2 mph 31.1 mph N/A   Overcast
3:13 AM 39.2 °F 28.5 °F 37.4 °F 93% 29.75 in 10.0 mi NE 24.2 mph 29.9 mph N/A Rain Rain
3:34 AM 39.2 °F 27.8 °F 37.4 °F 93% 29.75 in 10.0 mi NE 27.6 mph 32.2 mph N/A   Light Drizzle
3:53 AM 39.2 °F 27.8 °F 37.4 °F 93% 29.76 in 10.0 mi NE 27.6 mph 35.7 mph N/A Rain Light Rain
4:13 AM 37.4 °F 25.6 °F 35.6 °F 93% 29.76 in 10.0 mi NE 26.5 mph 38.0 mph N/A Rain Rain
4:34 AM 37.4 °F 25.2 °F 35.6 °F 93% 29.77 in 7.0 mi NE 28.8 mph 36.8 mph N/A Rain Light Rain
4:53 AM 37.4 °F 25.9 °F 35.6 °F 93% 29.77 in 7.0 mi NE 25.3 mph 39.1 mph N/A Rain Light Rain
5:13 AM 37.4 °F 26.1 °F 35.6 °F 93% 29.78 in 10.0 mi NE 24.2 mph 36.8 mph N/A Rain Light Rain
5:34 AM 37.4 °F 26.1 °F 35.6 °F 93% 29.77 in 10.0 mi NE 24.2 mph 35.7 mph N/A Rain Light Rain
5:53 AM 37.4 °F 25.9 °F 35.6 °F 93% 29.76 in 10.0 mi NE 25.3 mph 33.4 mph N/A   Light Drizzle
6:13 AM 37.4 °F 25.9 °F 35.6 °F 93% 29.75 in 10.0 mi NE 25.3 mph - N/A Rain Light Rain
6:34 AM 37.4 °F 25.2 °F 35.6 °F 93% 29.73 in 10.0 mi NE 28.8 mph 34.5 mph N/A Rain Light Rain
6:53 AM 37.4 °F 25.9 °F 35.6 °F 93% 29.75 in 10.0 mi NE 25.3 mph 32.2 mph N/A Rain Light Rain
7:34 AM 37.4 °F 25.0 °F 35.6 °F 93% 29.75 in 10.0 mi NE 29.9 mph 36.8 mph N/A   Overcast
7:53 AM 37.4 °F 25.2 °F 35.6 °F 93% 29.76 in 10.0 mi NE 28.8 mph 33.4 mph N/A   Overcast
8:13 AM 37.4 °F 26.1 °F 37.4 °F 100% 29.76 in 10.0 mi NE 24.2 mph 29.9 mph N/A   Overcast
8:34 AM 37.4 °F 26.4 °F 35.6 °F 93% 29.78 in 10.0 mi NE 23.0 mph 29.9 mph N/A Rain Light Rain
9:13 AM 37.4 °F 26.6 °F 35.6 °F 93% 29.78 in 10.0 mi NE 21.9 mph 25.3 mph N/A Rain Light Rain
9:34 AM 37.4 °F 26.6 °F 35.6 °F 93% 29.77 in 10.0 mi NE 21.9 mph - N/A   Drizzle
10:14 AM 37.4 °F 27.2 °F 35.6 °F 93% 29.79 in 10.0 mi NE 19.6 mph 27.6 mph N/A Rain Light Rain
10:33 AM 37.4 °F 26.6 °F 35.6 °F 93% 29.81 in 4.0 mi NNE 21.9 mph - N/A Rain Light Rain
10:54 AM 37.4 °F 26.6 °F 35.6 °F 93% 29.80 in 5.0 mi NNE 21.9 mph 28.8 mph N/A Rain Light Rain
11:13 AM 37.4 °F 27.8 °F 35.6 °F 93% 29.80 in 7.0 mi NNE 17.3 mph - N/A   Drizzle
11:33 AM 37.4 °F 29.8 °F 35.6 °F 93% 29.80 in 7.0 mi NNE 11.5 mph - N/A Rain Light Rain
11:54 AM 37.4 °F 31.4 °F 35.6 °F 93% 29.80 in 10.0 mi NNE 8.1 mph - N/A   Drizzle
12:13 PM 37.4 °F 30.8 °F 37.4 °F 100% 29.80 in 10.0 mi NNW 9.2 mph - N/A   Drizzle
12:33 PM 37.4 °F 32.1 °F 35.6 °F 93% 29.81 in 10.0 mi NNW 6.9 mph - N/A Rain Rain
12:53 PM 37.4 °F 31.4 °F 35.6 °F 93% 29.81 in 10.0 mi NNW 8.1 mph - N/A Rain Light Rain
1:13 PM 37.4 °F 31.4 °F 35.6 °F 93% 29.81 in 10.0 mi NNW 8.1 mph - N/A Rain Light Rain
1:54 PM 37.4 °F 31.4 °F 35.6 °F 93% 29.82 in 10.0 mi North 8.1 mph - N/A   Overcast
2:13 PM 37.4 °F 31.4 °F 35.6 °F 93% 29.82 in 10.0 mi North 8.1 mph - N/A   Overcast
2:33 PM 37.4 °F 30.8 °F 35.6 °F 93% 29.82 in 10.0 mi NNW 9.2 mph - N/A   Overcast
2:54 PM 35.6 °F 29.9 °F 35.6 °F 100% 29.83 in 10.0 mi NW 6.9 mph - N/A   Overcast
3:13 PM 35.6 °F 29.9 °F 35.6 °F 100% 29.85 in 10.0 mi NW 6.9 mph - N/A   Overcast
3:33 PM 35.6 °F 28.0 °F 33.8 °F 93% 29.86 in 10.0 mi NW 10.4 mph 16.1 mph N/A   Overcast
3:54 PM 35.6 °F 27.1 °F 33.8 °F 93% 29.87 in 10.0 mi NW 12.7 mph - N/A   Overcast
4:33 PM 35.6 °F 24.2 °F 33.8 °F 93% 29.89 in 10.0 mi NW 21.9 mph 28.8 mph N/A   Overcast
4:54 PM 35.6 °F 26.6 °F 33.8 °F 93% 29.91 in 7.0 mi NNW 13.8 mph 24.2 mph N/A Rain Light Rain
5:13 PM 35.6 °F 27.5 °F 33.8 °F 93% 29.92 in 4.0 mi NW 11.5 mph 20.7 mph N/A Rain Light Rain
5:34 PM 35.6 °F 28.0 °F 32.0 °F 87% 29.93 in 10.0 mi NW 10.4 mph 18.4 mph N/A   Overcast
5:53 PM 35.6 °F 29.9 °F 30.2 °F 81% 29.94 in 10.0 mi NW 6.9 mph 18.4 mph N/A   Overcast
6:13 PM 35.6 °F 27.1 °F 30.2 °F 81% 29.94 in 10.0 mi NW 12.7 mph 23.0 mph N/A   Overcast
6:33 PM 35.6 °F 26.6 °F 30.2 °F 81% 29.95 in 10.0 mi WNW 13.8 mph 18.4 mph N/A   Overcast
6:53 PM 35.6 °F 27.5 °F 30.2 °F 81% 29.96 in 10.0 mi NW 11.5 mph 18.4 mph N/A   Overcast
7:13 PM 35.6 °F 28.6 °F 30.2 °F 81% 29.96 in 10.0 mi NW 9.2 mph 18.4 mph N/A   Overcast
7:34 PM 35.6 °F 28.6 °F 30.2 °F 81% 29.97 in 10.0 mi NW 9.2 mph - N/A   Overcast
8:13 PM 35.6 °F 28.0 °F 30.2 °F 81% 29.98 in 10.0 mi NNW 10.4 mph - N/A   Overcast
8:34 PM 35.6 °F 26.6 °F 30.2 °F 81% 29.99 in 10.0 mi NW 13.8 mph 17.3 mph N/A   Overcast
8:53 PM 35.6 °F 28.0 °F 30.2 °F 81% 30.00 in 10.0 mi NW 10.4 mph - N/A   Overcast
9:13 PM 35.6 °F 27.1 °F 28.4 °F 75% 30.00 in 10.0 mi NW 12.7 mph 24.2 mph N/A   Overcast
10:13 PM 35.6 °F 26.2 °F 28.4 °F 75% 30.01 in 10.0 mi NW 15.0 mph - N/A   Overcast
10:34 PM 35.6 °F 27.1 °F 28.4 °F 75% 30.01 in 10.0 mi NW 12.7 mph 19.6 mph N/A   Overcast
10:53 PM 35.6 °F 26.2 °F 28.4 °F 75% 30.01 in 10.0 mi NW 15.0 mph 19.6 mph N/A   Overcast
11:13 PM 35.6 °F 26.2 °F 28.4 °F 75% 30.02 in 10.0 mi NW 15.0 mph 21.9 mph N/A   Overcast
11:34 PM 33.8 °F 23.5 °F 28.4 °F 81% 30.02 in 10.0 mi NW 16.1 mph - N/A   Overcast
11:53 PM 33.8 °F 24.3 °F 28.4 °F 81% 30.02 in 10.0 mi NW 13.8 mph 17.3 mph N/A   Overcast